#datetime,building,power
2021-12-01T00:00:00,pth,2.40
2021-12-01T00:02:00,pth,4.80
2021-12-01T00:04:00,pth,3.57
2021-12-01T00:06:00,pth,4.80
2021-12-01T00:08:00,pth,3.57
2021-12-01T00:10:00,pth,4.80
2021-12-01T00:12:00,pth,3.63
2021-12-01T00:14:00,pth,4.80
2021-12-01T00:15:00,pth,2.40
2021-12-01T00:17:00,pth,4.75
2021-12-01T00:18:00,pth,2.40
2021-12-01T00:20:00,pth,4.80
2021-12-01T00:21:00,pth,1.23
2021-12-01T00:23:00,pth,4.80
2021-12-01T00:25:00,pth,4.80
2021-12-01T00:26:00,pth,1.17
2021-12-01T00:28:00,pth,4.80
2021-12-01T00:29:00,pth,2.40
2021-12-01T00:31:00,pth,4.80
2021-12-01T00:32:00,pth,1.17
2021-12-01T00:34:00,pth,4.80
2021-12-01T00:35:00,pth,2.40
2021-12-01T00:37:00,pth,4.80
2021-12-01T00:39:00,pth,4.80
2021-12-01T00:41:00,pth,3.63
2021-12-01T00:42:00,pth,2.40
2021-12-01T00:44:00,pth,3.57
2021-12-01T00:45:00,pth,2.40
2021-12-01T00:46:00,pth,2.40
2021-12-01T00:48:00,pth,4.80
2021-12-01T00:50:00,pth,4.80
2021-12-01T00:51:00,pth,2.40
2021-12-01T00:53:00,pth,3.57
2021-12-01T00:55:00,pth,4.80
2021-12-01T00:57:00,pth,4.80
2021-12-01T00:58:00,pth,2.40
2021-12-01T01:00:00,pth,4.80
2021-12-01T01:01:00,pth,2.40
2021-12-01T01:03:00,pth,4.80
2021-12-01T01:04:00,pth,1.17
2021-12-01T01:06:00,pth,4.80
2021-12-01T01:07:00,pth,2.40
2021-12-01T01:09:00,pth,4.80
2021-12-01T01:11:00,pth,3.57
2021-12-01T01:12:00,pth,2.40
2021-12-01T01:14:00,pth,3.63
2021-12-01T01:16:00,pth,4.80
2021-12-01T01:18:00,pth,4.80
2021-12-01T01:20:00,pth,4.80
2021-12-01T01:22:00,pth,3.57
2021-12-01T01:23:00,pth,2.40
2021-12-01T01:25:00,pth,4.80
2021-12-01T01:27:00,pth,3.57
2021-12-01T01:28:00,pth,2.40
2021-12-01T01:29:00,pth,1.23
2021-12-01T01:31:00,pth,4.80
2021-12-01T01:33:00,pth,4.80
2021-12-01T01:35:00,pth,3.57
2021-12-01T01:36:00,pth,2.40
2021-12-01T01:38:00,pth,4.80
2021-12-01T01:40:00,pth,3.57
2021-12-01T01:42:00,pth,3.63
2021-12-01T01:44:00,pth,4.80
2021-12-01T01:45:00,pth,1.17
2021-12-01T01:47:00,pth,3.63
2021-12-01T01:48:00,pth,2.40
2021-12-01T01:49:00,pth,2.40
2021-12-01T01:51:00,pth,3.57
2021-12-01T01:53:00,pth,4.80
2021-12-01T01:54:00,pth,1.17
2021-12-01T01:55:00,pth,2.40
2021-12-01T01:57:00,pth,3.63
2021-12-01T01:58:00,pth,2.40
2021-12-01T01:59:00,pth,2.40
2021-12-01T02:01:00,pth,3.57
2021-12-01T02:02:00,pth,1.23
2021-12-01T02:04:00,pth,4.80
2021-12-01T02:06:00,pth,3.57
2021-12-01T02:08:00,pth,4.80
2021-12-01T02:10:00,pth,3.57
2021-12-01T02:12:00,pth,4.80
2021-12-01T02:13:00,pth,2.40
2021-12-01T02:15:00,pth,3.63
2021-12-01T02:17:00,pth,4.80
2021-12-01T02:19:00,pth,4.80
2021-12-01T02:20:00,pth,1.17
2021-12-01T02:22:00,pth,4.80
2021-12-01T02:24:00,pth,4.80
2021-12-01T02:26:00,pth,3.57
2021-12-01T02:27:00,pth,2.40
2021-12-01T02:29:00,pth,3.63
2021-12-01T02:30:00,pth,2.40
2021-12-01T02:32:00,pth,4.80
2021-12-01T02:34:00,pth,3.57
2021-12-01T02:35:00,pth,2.40
2021-12-01T02:37:00,pth,3.57
2021-12-01T02:39:00,pth,4.80
2021-12-01T02:40:00,pth,1.23
2021-12-01T02:42:00,pth,3.57
2021-12-01T02:44:00,pth,4.80
2021-12-01T02:45:00,pth,2.40
2021-12-01T02:47:00,pth,3.63
2021-12-01T02:49:00,pth,3.57
2021-12-01T02:51:00,pth,4.80
2021-12-01T02:53:00,pth,3.57
2021-12-01T02:55:00,pth,3.63
2021-12-01T02:57:00,pth,4.80
2021-12-01T02:59:00,pth,3.57
2021-12-01T03:01:00,pth,3.63
2021-12-01T03:03:00,pth,4.80
2021-12-01T03:05:00,pth,3.57
2021-12-01T03:06:00,pth,2.40
2021-12-01T03:08:00,pth,3.57
2021-12-01T03:09:00,pth,2.40
2021-12-01T03:10:00,pth,1.23
2021-12-01T03:11:00,pth,2.40
2021-12-01T03:13:00,pth,3.57
2021-12-01T03:14:00,pth,2.40
2021-12-01T03:16:00,pth,3.63
2021-12-01T03:18:00,pth,3.57
2021-12-01T03:20:00,pth,4.80
2021-12-01T03:21:00,pth,2.40
2021-12-01T03:23:00,pth,3.57
2021-12-01T03:25:00,pth,4.80
2021-12-01T03:27:00,pth,3.63
2021-12-01T03:29:00,pth,3.57
2021-12-01T03:30:00,pth,2.40
2021-12-01T03:32:00,pth,4.80
2021-12-01T03:33:00,pth,2.40
2021-12-01T03:34:00,pth,1.23
2021-12-01T03:36:00,pth,4.75
2021-12-01T03:37:00,pth,2.40
2021-12-01T03:39:00,pth,3.63
2021-12-01T03:41:00,pth,3.57
2021-12-01T03:43:00,pth,4.80
2021-12-01T03:44:00,pth,2.40
2021-12-01T03:46:00,pth,4.80
2021-12-01T03:47:00,pth,1.23
2021-12-01T03:48:00,pth,2.40
2021-12-01T03:50:00,pth,4.75
2021-12-01T03:52:00,pth,3.63
2021-12-01T03:54:00,pth,3.57
2021-12-01T03:55:00,pth,2.40
2021-12-01T03:57:00,pth,4.80
2021-12-01T03:59:00,pth,3.63
2021-12-01T04:00:00,pth,2.40
2021-12-01T04:02:00,pth,3.57
2021-12-01T04:04:00,pth,3.63
2021-12-01T04:06:00,pth,4.75
2021-12-01T04:08:00,pth,3.63
2021-12-01T04:09:00,pth,2.40
2021-12-01T04:11:00,pth,3.57
2021-12-01T04:13:00,pth,3.63
2021-12-01T04:15:00,pth,3.57
2021-12-01T04:17:00,pth,4.80
2021-12-01T04:19:00,pth,3.63
2021-12-01T04:21:00,pth,3.57
2021-12-01T04:23:00,pth,4.80
2021-12-01T04:24:00,pth,1.17
2021-12-01T04:25:00,pth,2.40
2021-12-01T04:27:00,pth,3.63
2021-12-01T04:28:00,pth,2.40
2021-12-01T04:30:00,pth,3.57
2021-12-01T04:31:00,pth,2.40
2021-12-01T04:33:00,pth,3.63
2021-12-01T04:34:00,pth,2.40
2021-12-01T04:36:00,pth,3.57
2021-12-01T04:38:00,pth,4.80
2021-12-01T04:39:00,pth,1.17
2021-12-01T04:40:00,pth,2.40
2021-12-01T04:42:00,pth,3.63
2021-12-01T04:44:00,pth,3.57
2021-12-01T04:45:00,pth,2.40
2021-12-01T04:47:00,pth,4.80
2021-12-01T04:49:00,pth,3.63
2021-12-01T04:50:00,pth,1.17
2021-12-01T04:52:00,pth,4.80
2021-12-01T04:53:00,pth,1.17
2021-12-01T04:55:00,pth,4.80
2021-12-01T04:57:00,pth,3.63
2021-12-01T04:59:00,pth,4.80
2021-12-01T05:00:00,pth,1.17
2021-12-01T05:02:00,pth,4.80
2021-12-01T05:03:00,pth,1.23
2021-12-01T05:05:00,pth,4.75
2021-12-01T05:07:00,pth,3.63
2021-12-01T05:09:00,pth,4.80
2021-12-01T05:11:00,pth,3.57
2021-12-01T05:13:00,pth,4.80
2021-12-01T05:15:00,pth,3.63
2021-12-01T05:17:00,pth,3.57
2021-12-01T05:18:00,pth,2.40
2021-12-01T05:20:00,pth,3.57
2021-12-01T05:22:00,pth,3.63
2021-12-01T05:24:00,pth,4.80
2021-12-01T05:25:00,pth,1.17
2021-12-01T05:27:00,pth,3.63
2021-12-01T05:28:00,pth,2.40
2021-12-01T05:30:00,pth,3.57
2021-12-01T05:32:00,pth,3.63
2021-12-01T05:34:00,pth,3.57
2021-12-01T05:35:00,pth,2.40
2021-12-01T05:37:00,pth,4.80
2021-12-01T05:38:00,pth,1.17
2021-12-01T05:40:00,pth,3.63
2021-12-01T05:42:00,pth,4.80
2021-12-01T05:44:00,pth,3.57
2021-12-01T05:46:00,pth,3.63
2021-12-01T05:48:00,pth,3.57
2021-12-01T05:49:00,pth,2.40
2021-12-01T05:50:00,pth,2.40
2021-12-01T05:52:00,pth,3.57
2021-12-01T05:54:00,pth,3.63
2021-12-01T05:56:00,pth,4.80
2021-12-01T05:58:00,pth,3.57
2021-12-01T06:00:00,pth,3.63
2021-12-01T06:02:00,pth,4.80
2021-12-01T06:03:00,pth,1.17
2021-12-01T06:05:00,pth,3.63
2021-12-01T06:07:00,pth,4.75
2021-12-01T06:09:00,pth,3.63
2021-12-01T06:11:00,pth,3.57
2021-12-01T06:12:00,pth,2.40
2021-12-01T06:13:00,pth,1.23
2021-12-01T06:15:00,pth,3.57
2021-12-01T06:16:00,pth,2.40
2021-12-01T06:18:00,pth,3.63
2021-12-01T06:19:00,pth,2.40
2021-12-01T06:21:00,pth,3.57
2021-12-01T06:23:00,pth,4.80
2021-12-01T06:25:00,pth,3.57
2021-12-01T06:27:00,pth,4.80
2021-12-01T06:29:00,pth,3.63
2021-12-01T06:31:00,pth,3.57
2021-12-01T06:32:00,pth,2.40
2021-12-01T06:35:00,pth,3.63
2021-12-01T06:36:00,pth,4.75
2021-12-01T06:38:00,pth,3.63
2021-12-01T06:39:00,pth,2.40
2021-12-01T06:41:00,pth,3.57
2021-12-01T06:42:00,pth,2.40
2021-12-01T06:44:00,pth,3.63
2021-12-01T06:46:00,pth,3.57
2021-12-01T06:48:00,pth,4.80
2021-12-01T06:49:00,pth,1.23
2021-12-01T06:51:00,pth,4.75
2021-12-01T06:53:00,pth,3.63
2021-12-01T06:55:00,pth,4.80
2021-12-01T06:56:00,pth,1.17
2021-12-01T06:58:00,pth,3.63
2021-12-01T06:59:00,pth,2.40
2021-12-01T07:01:00,pth,3.57
2021-12-01T07:03:00,pth,4.80
2021-12-01T07:04:00,pth,2.40
2021-12-01T07:06:00,pth,3.57
2021-12-01T07:08:00,pth,6.04
2021-12-01T07:10:00,pth,4.80
2021-12-01T07:12:00,pth,3.57
2021-12-01T07:14:00,pth,4.80
2021-12-01T07:16:00,pth,4.80
2021-12-01T07:17:00,pth,1.23
2021-12-01T07:18:00,pth,2.40
2021-12-01T07:19:00,pth,2.34
2021-12-01T07:21:00,pth,2.40
2021-12-01T07:23:00,pth,3.63
2021-12-01T07:25:00,pth,3.57
2021-12-01T07:26:00,pth,2.40
2021-12-01T07:28:00,pth,3.63
2021-12-01T07:30:00,pth,3.57
2021-12-01T07:31:00,pth,2.40
2021-12-01T07:33:00,pth,3.63
2021-12-01T07:35:00,pth,4.75
2021-12-01T07:37:00,pth,3.63
2021-12-01T07:39:00,pth,4.80
2021-12-01T07:40:00,pth,1.17
2021-12-01T07:41:00,pth,2.40
2021-12-01T07:43:00,pth,3.63
2021-12-01T07:44:00,pth,2.40
2021-12-01T07:46:00,pth,3.57
2021-12-01T07:47:00,pth,1.23
2021-12-01T07:48:00,pth,2.40
2021-12-01T07:50:00,pth,3.57
2021-12-01T07:52:00,pth,3.57
2021-12-01T07:54:00,pth,4.80
2021-12-01T07:56:00,pth,3.63
2021-12-01T07:58:00,pth,3.57
2021-12-01T08:00:00,pth,3.63
2021-12-01T08:01:00,pth,2.40
2021-12-01T08:03:00,pth,4.80
2021-12-01T08:04:00,pth,1.17
2021-12-01T08:05:00,pth,2.40
2021-12-01T08:07:00,pth,3.57
2021-12-01T08:09:00,pth,4.80
2021-12-01T08:11:00,pth,3.63
2021-12-01T08:13:00,pth,3.57
2021-12-01T08:15:00,pth,3.63
2021-12-01T08:16:00,pth,2.40
2021-12-01T08:18:00,pth,3.57
2021-12-01T08:20:00,pth,3.63
2021-12-01T08:22:00,pth,3.57
2021-12-01T08:24:00,pth,3.57
2021-12-01T08:26:00,pth,3.63
2021-12-01T08:28:00,pth,3.57
2021-12-01T08:30:00,pth,3.63
2021-12-01T08:32:00,pth,3.57
2021-12-01T08:34:00,pth,3.63
2021-12-01T08:35:00,pth,2.40
2021-12-01T08:36:00,pth,1.17
2021-12-01T08:38:00,pth,3.57
2021-12-01T08:39:00,pth,2.40
2021-12-01T08:41:00,pth,3.63
2021-12-01T08:43:00,pth,3.57
2021-12-01T08:45:00,pth,3.63
2021-12-01T08:47:00,pth,3.57
2021-12-01T08:49:00,pth,4.80
2021-12-01T08:50:00,pth,1.23
2021-12-01T08:52:00,pth,3.57
2021-12-01T08:53:00,pth,2.40
2021-12-01T08:55:00,pth,3.57
2021-12-01T08:56:00,pth,2.40
2021-12-01T08:58:00,pth,3.63
2021-12-01T09:00:00,pth,3.57
2021-12-01T09:02:00,pth,4.80
2021-12-01T09:04:00,pth,3.63
2021-12-01T09:06:00,pth,3.57
2021-12-01T09:08:00,pth,3.63
2021-12-01T09:09:00,pth,2.34
2021-12-01T09:11:00,pth,3.63
2021-12-01T09:13:00,pth,4.80
2021-12-01T09:15:00,pth,3.57
2021-12-01T09:17:00,pth,4.80
2021-12-01T09:19:00,pth,4.80
2021-12-01T09:21:00,pth,4.80
2021-12-01T09:23:00,pth,4.80
2021-12-01T09:25:00,pth,4.80
2021-12-01T09:27:00,pth,5.98
2021-12-01T09:29:00,pth,4.80
2021-12-01T09:31:00,pth,4.80
2021-12-01T09:33:00,pth,3.63
2021-12-01T09:35:00,pth,4.75
2021-12-01T09:37:00,pth,3.63
2021-12-01T09:39:00,pth,3.57
2021-12-01T09:41:00,pth,3.63
2021-12-01T09:42:00,pth,2.40
2021-12-01T09:44:00,pth,4.80
2021-12-01T09:46:00,pth,3.57
2021-12-01T09:47:00,pth,2.40
2021-12-01T09:49:00,pth,4.80
2021-12-01T09:51:00,pth,4.80
2021-12-01T09:53:00,pth,3.57
2021-12-01T09:55:00,pth,4.80
2021-12-01T09:56:00,pth,1.23
2021-12-01T09:58:00,pth,4.80
2021-12-01T09:59:00,pth,2.40
2021-12-01T10:01:00,pth,3.57
2021-12-01T10:03:00,pth,4.80
2021-12-01T10:05:00,pth,3.57
2021-12-01T10:07:00,pth,4.80
2021-12-01T10:08:00,pth,2.40
2021-12-01T10:09:00,pth,1.23
2021-12-01T10:11:00,pth,4.80
2021-12-01T10:12:00,pth,1.17
2021-12-01T10:14:00,pth,3.63
2021-12-01T10:16:00,pth,4.80
2021-12-01T10:17:00,pth,2.40
2021-12-01T10:18:00,pth,1.17
2021-12-01T10:20:00,pth,4.80
2021-12-01T10:22:00,pth,3.57
2021-12-01T10:23:00,pth,1.23
2021-12-01T10:25:00,pth,4.80
2021-12-01T10:27:00,pth,3.57
2021-12-01T10:29:00,pth,3.63
2021-12-01T10:31:00,pth,4.80
2021-12-01T10:33:00,pth,3.57
2021-12-01T10:35:00,pth,3.57
2021-12-01T10:37:00,pth,3.63
2021-12-01T10:39:00,pth,4.80
2021-12-01T10:41:00,pth,3.57
2021-12-01T10:43:00,pth,3.63
2021-12-01T10:45:00,pth,4.80
2021-12-01T10:46:00,pth,2.40
2021-12-01T10:48:00,pth,4.75
2021-12-01T10:50:00,pth,4.80
2021-12-01T10:52:00,pth,4.80
2021-12-01T10:53:00,pth,2.40
2021-12-01T10:55:00,pth,3.63
2021-12-01T10:57:00,pth,4.80
2021-12-01T10:59:00,pth,4.80
2021-12-01T11:01:00,pth,3.57
2021-12-01T11:02:00,pth,1.17
2021-12-01T11:04:00,pth,3.63
2021-12-01T11:06:00,pth,3.57
2021-12-01T11:08:00,pth,3.63
2021-12-01T11:10:00,pth,2.40
2021-12-01T11:11:00,pth,2.40
2021-12-01T11:13:00,pth,3.57
2021-12-01T11:15:00,pth,3.63
2021-12-01T11:16:00,pth,2.40
2021-12-01T11:18:00,pth,3.57
2021-12-01T11:20:00,pth,3.57
2021-12-01T11:21:00,pth,1.23
2021-12-01T11:22:00,pth,2.40
2021-12-01T11:24:00,pth,3.57
2021-12-01T11:25:00,pth,1.23
2021-12-01T11:26:00,pth,2.40
2021-12-01T11:28:00,pth,3.57
2021-12-01T11:30:00,pth,3.63
2021-12-01T11:31:00,pth,2.40
2021-12-01T11:33:00,pth,3.57
2021-12-01T11:34:00,pth,2.40
2021-12-01T11:36:00,pth,3.57
2021-12-01T11:38:00,pth,3.63
2021-12-01T11:40:00,pth,3.57
2021-12-01T11:42:00,pth,4.80
2021-12-01T11:44:00,pth,3.63
2021-12-01T11:46:00,pth,4.80
2021-12-01T11:47:00,pth,1.17
2021-12-01T11:49:00,pth,3.63
2021-12-01T11:51:00,pth,4.75
2021-12-01T11:53:00,pth,3.63
2021-12-01T11:55:00,pth,3.57
2021-12-01T11:57:00,pth,3.63
2021-12-01T11:59:00,pth,4.80
2021-12-01T12:01:00,pth,3.57
2021-12-01T12:03:00,pth,4.80
2021-12-01T12:04:00,pth,1.23
2021-12-01T12:06:00,pth,3.57
2021-12-01T12:07:00,pth,2.40
2021-12-01T12:09:00,pth,3.57
2021-12-01T12:10:00,pth,2.40
2021-12-01T12:12:00,pth,3.63
2021-12-01T12:13:00,pth,1.17
2021-12-01T12:15:00,pth,3.63
2021-12-01T12:17:00,pth,4.80
2021-12-01T12:18:00,pth,1.17
2021-12-01T12:20:00,pth,3.63
2021-12-01T12:22:00,pth,4.75
2021-12-01T12:23:00,pth,1.23
2021-12-01T12:25:00,pth,3.57
2021-12-01T12:27:00,pth,3.63
2021-12-01T12:28:00,pth,2.40
2021-12-01T12:30:00,pth,3.57
2021-12-01T12:32:00,pth,3.63
2021-12-01T12:34:00,pth,3.57
2021-12-01T12:35:00,pth,1.23
2021-12-01T12:36:00,pth,2.40
2021-12-01T12:38:00,pth,3.57
2021-12-01T12:39:00,pth,1.17
2021-12-01T12:41:00,pth,3.63
2021-12-01T12:43:00,pth,3.57
2021-12-01T12:45:00,pth,3.63
2021-12-01T12:47:00,pth,3.57
2021-12-01T12:48:00,pth,2.40
2021-12-01T12:50:00,pth,3.63
2021-12-01T12:52:00,pth,4.80
2021-12-01T12:54:00,pth,3.57
2021-12-01T12:55:00,pth,2.40
2021-12-01T12:57:00,pth,3.57
2021-12-01T12:59:00,pth,4.80
2021-12-01T13:01:00,pth,3.63
2021-12-01T13:03:00,pth,3.57
2021-12-01T13:05:00,pth,4.80
2021-12-01T13:07:00,pth,3.63
2021-12-01T13:09:00,pth,3.57
2021-12-01T13:11:00,pth,4.80
2021-12-01T13:12:00,pth,1.17
2021-12-01T13:14:00,pth,3.63
2021-12-01T13:16:00,pth,3.57
2021-12-01T13:18:00,pth,3.63
2021-12-01T13:19:00,pth,2.40
2021-12-01T13:21:00,pth,3.57
2021-12-01T13:23:00,pth,3.63
2021-12-01T13:24:00,pth,1.17
2021-12-01T13:26:00,pth,3.57
2021-12-01T13:27:00,pth,2.40
2021-12-01T13:29:00,pth,3.63
2021-12-01T13:30:00,pth,2.40
2021-12-01T13:32:00,pth,3.57
2021-12-01T13:34:00,pth,3.63
2021-12-01T13:36:00,pth,3.57
2021-12-01T13:37:00,pth,1.23
2021-12-01T13:39:00,pth,3.57
2021-12-01T13:41:00,pth,4.80
2021-12-01T13:42:00,pth,1.17
2021-12-01T13:44:00,pth,3.63
2021-12-01T13:46:00,pth,3.57
2021-12-01T13:48:00,pth,3.63
2021-12-01T13:50:00,pth,3.57
2021-12-01T13:52:00,pth,3.63
2021-12-01T13:54:00,pth,3.57
2021-12-01T13:56:00,pth,3.63
2021-12-01T13:58:00,pth,3.57
2021-12-01T14:00:00,pth,3.57
2021-12-01T14:01:00,pth,1.23
2021-12-01T14:03:00,pth,4.80
2021-12-01T14:05:00,pth,3.57
2021-12-01T14:07:00,pth,3.63
2021-12-01T14:09:00,pth,4.80
2021-12-01T14:10:00,pth,1.17
2021-12-01T14:12:00,pth,4.80
2021-12-01T14:14:00,pth,3.57
2021-12-01T14:16:00,pth,6.04
2021-12-01T14:17:00,pth,3.57
2021-12-01T14:19:00,pth,6.04
2021-12-01T14:21:00,pth,5.98
2021-12-01T14:23:00,pth,4.80
2021-12-01T14:25:00,pth,3.57
2021-12-01T14:27:00,pth,4.80
2021-12-01T14:29:00,pth,3.63
2021-12-01T14:30:00,pth,2.40
2021-12-01T14:32:00,pth,3.57
2021-12-01T14:33:00,pth,1.23
2021-12-01T14:35:00,pth,3.57
2021-12-01T14:37:00,pth,3.63
2021-12-01T14:39:00,pth,4.75
2021-12-01T14:40:00,pth,1.23
2021-12-01T14:42:00,pth,3.57
2021-12-01T14:43:00,pth,1.23
2021-12-01T14:45:00,pth,3.57
2021-12-01T14:46:00,pth,2.40
2021-12-01T14:48:00,pth,3.63
2021-12-01T14:50:00,pth,3.57
2021-12-01T14:51:00,pth,1.23
2021-12-01T14:53:00,pth,3.57
2021-12-01T14:54:00,pth,2.40
2021-12-01T14:55:00,pth,1.23
2021-12-01T14:57:00,pth,3.57
2021-12-01T14:59:00,pth,4.80
2021-12-01T15:01:00,pth,8.38
2021-12-01T15:02:00,pth,4.80
2021-12-01T15:04:00,pth,10.78
2021-12-01T15:06:00,pth,9.61
2021-12-01T15:07:00,pth,6.04
2021-12-01T15:08:00,pth,3.57
2021-12-01T15:10:00,pth,8.44
2021-12-01T15:11:00,pth,4.75
2021-12-01T15:13:00,pth,8.44
2021-12-01T15:15:00,pth,4.80
2021-12-01T15:16:00,pth,1.17
2021-12-01T15:18:00,pth,7.21
2021-12-01T15:20:00,pth,8.38
2021-12-01T15:22:00,pth,3.63
2021-12-01T15:24:00,pth,5.98
2021-12-01T15:25:00,pth,1.23
2021-12-01T15:27:00,pth,4.80
2021-12-01T15:29:00,pth,3.57
2021-12-01T15:31:00,pth,4.80
2021-12-01T15:33:00,pth,3.57
2021-12-01T15:35:00,pth,3.63
2021-12-01T15:37:00,pth,3.57
2021-12-01T15:38:00,pth,2.40
2021-12-01T15:40:00,pth,3.63
2021-12-01T15:42:00,pth,3.57
2021-12-01T15:44:00,pth,3.63
2021-12-01T15:46:00,pth,4.80
2021-12-01T15:47:00,pth,1.17
2021-12-01T15:49:00,pth,4.80
2021-12-01T15:50:00,pth,1.17
2021-12-01T15:51:00,pth,2.40
2021-12-01T15:52:00,pth,1.23
2021-12-01T15:54:00,pth,3.57
2021-12-01T15:55:00,pth,2.40
2021-12-01T15:57:00,pth,3.63
2021-12-01T15:58:00,pth,1.17
2021-12-01T16:00:00,pth,3.63
2021-12-01T16:01:00,pth,2.40
2021-12-01T16:03:00,pth,3.57
2021-12-01T16:05:00,pth,3.57
2021-12-01T16:07:00,pth,3.63
2021-12-01T16:09:00,pth,4.80
2021-12-01T16:11:00,pth,2.40
2021-12-01T16:12:00,pth,2.40
2021-12-01T16:14:00,pth,3.57
2021-12-01T16:16:00,pth,3.63
2021-12-01T16:17:00,pth,1.17
2021-12-01T16:19:00,pth,3.63
2021-12-01T16:21:00,pth,3.57
2021-12-01T16:22:00,pth,1.17
2021-12-01T16:24:00,pth,3.63
2021-12-01T16:25:00,pth,2.40
2021-12-01T16:27:00,pth,4.80
2021-12-01T16:29:00,pth,3.57
2021-12-01T16:31:00,pth,4.80
2021-12-01T16:32:00,pth,2.40
2021-12-01T16:34:00,pth,3.63
2021-12-01T16:36:00,pth,4.75
2021-12-01T16:38:00,pth,4.80
2021-12-01T16:40:00,pth,4.80
2021-12-01T16:42:00,pth,3.63
2021-12-01T16:44:00,pth,4.80
2021-12-01T16:46:00,pth,3.57
2021-12-01T16:47:00,pth,2.40
2021-12-01T16:48:00,pth,2.40
2021-12-01T16:50:00,pth,3.57
2021-12-01T16:52:00,pth,4.80
2021-12-01T16:54:00,pth,3.63
2021-12-01T16:55:00,pth,2.40
2021-12-01T16:56:00,pth,2.40
2021-12-01T16:58:00,pth,4.80
2021-12-01T17:00:00,pth,3.57
2021-12-01T17:02:00,pth,4.80
2021-12-01T17:04:00,pth,4.80
2021-12-01T17:06:00,pth,3.57
2021-12-01T17:07:00,pth,2.40
2021-12-01T17:08:00,pth,2.40
2021-12-01T17:10:00,pth,4.80
2021-12-01T17:11:00,pth,1.23
2021-12-01T17:13:00,pth,4.80
2021-12-01T17:15:00,pth,4.80
2021-12-01T17:17:00,pth,4.75
2021-12-01T17:18:00,pth,2.40
2021-12-01T17:19:00,pth,2.40
2021-12-01T17:21:00,pth,3.63
2021-12-01T17:23:00,pth,4.80
2021-12-01T17:25:00,pth,4.80
2021-12-01T17:27:00,pth,3.57
2021-12-01T17:28:00,pth,2.40
2021-12-01T17:30:00,pth,4.80
2021-12-01T17:32:00,pth,4.80
2021-12-01T17:34:00,pth,3.57
2021-12-01T17:35:00,pth,2.40
2021-12-01T17:36:00,pth,2.40
2021-12-01T17:38:00,pth,4.80
2021-12-01T17:40:00,pth,3.63
2021-12-01T17:42:00,pth,4.80
2021-12-01T17:44:00,pth,4.75
2021-12-01T17:46:00,pth,3.63
2021-12-01T17:48:00,pth,3.57
2021-12-01T17:50:00,pth,4.80
2021-12-01T17:52:00,pth,3.63
2021-12-01T17:53:00,pth,2.40
2021-12-01T17:55:00,pth,4.80
2021-12-01T17:57:00,pth,3.57
2021-12-01T17:59:00,pth,3.57
2021-12-01T18:01:00,pth,4.80
2021-12-01T18:03:00,pth,4.80
2021-12-01T18:05:00,pth,4.80
2021-12-01T18:06:00,pth,1.23
2021-12-01T18:07:00,pth,2.40
2021-12-01T18:09:00,pth,4.80
2021-12-01T18:10:00,pth,2.40
2021-12-01T18:12:00,pth,4.75
2021-12-01T18:14:00,pth,3.63
2021-12-01T18:16:00,pth,4.80
2021-12-01T18:18:00,pth,4.80
2021-12-01T18:19:00,pth,1.17
2021-12-01T18:21:00,pth,4.80
2021-12-01T18:23:00,pth,4.80
2021-12-01T18:25:00,pth,4.80
2021-12-01T18:26:00,pth,2.40
2021-12-01T18:28:00,pth,3.57
2021-12-01T18:30:00,pth,4.80
2021-12-01T18:32:00,pth,4.80
2021-12-01T18:34:00,pth,3.63
2021-12-01T18:35:00,pth,2.40
2021-12-01T18:37:00,pth,4.80
2021-12-01T18:39:00,pth,4.75
2021-12-01T18:40:00,pth,2.40
2021-12-01T18:42:00,pth,3.63
2021-12-01T18:43:00,pth,2.40
2021-12-01T18:45:00,pth,5.98
2021-12-01T18:46:00,pth,2.40
2021-12-01T18:48:00,pth,4.80
2021-12-01T18:50:00,pth,4.80
2021-12-01T18:52:00,pth,4.80
2021-12-01T18:54:00,pth,4.80
2021-12-01T18:55:00,pth,1.17
2021-12-01T18:57:00,pth,4.80
2021-12-01T18:58:00,pth,2.40
2021-12-01T19:00:00,pth,3.63
2021-12-01T19:02:00,pth,4.80
2021-12-01T19:03:00,pth,2.40
2021-12-01T19:05:00,pth,4.75
2021-12-01T19:06:00,pth,1.23
2021-12-01T19:08:00,pth,4.80
2021-12-01T19:09:00,pth,2.40
2021-12-01T19:11:00,pth,3.57
2021-12-01T19:13:00,pth,4.80
2021-12-01T19:14:00,pth,2.40
2021-12-01T19:16:00,pth,3.63
2021-12-01T19:17:00,pth,2.40
2021-12-01T19:19:00,pth,4.75
2021-12-01T19:21:00,pth,3.63
2021-12-01T19:23:00,pth,4.80
2021-12-01T19:24:00,pth,3.57
2021-12-01T19:26:00,pth,7.21
2021-12-01T19:27:00,pth,3.63
2021-12-01T19:29:00,pth,4.80
2021-12-01T19:31:00,pth,4.75
2021-12-01T19:32:00,pth,2.40
2021-12-01T19:34:00,pth,4.80
2021-12-01T19:35:00,pth,2.40
2021-12-01T19:37:00,pth,4.80
2021-12-01T19:39:00,pth,3.63
2021-12-01T19:41:00,pth,4.80
2021-12-01T19:43:00,pth,5.98
2021-12-01T19:45:00,pth,5.98
2021-12-01T19:47:00,pth,6.04
2021-12-01T19:49:00,pth,7.21
2021-12-01T19:51:00,pth,4.80
2021-12-01T19:52:00,pth,2.40
2021-12-01T19:54:00,pth,4.75
2021-12-01T19:56:00,pth,4.80
2021-12-01T19:58:00,pth,4.80
2021-12-01T20:00:00,pth,4.80
2021-12-01T20:01:00,pth,3.63
2021-12-01T20:03:00,pth,4.80
2021-12-01T20:05:00,pth,4.75
2021-12-01T20:07:00,pth,3.63
2021-12-01T20:08:00,pth,2.40
2021-12-01T20:10:00,pth,4.80
2021-12-01T20:12:00,pth,4.80
2021-12-01T20:14:00,pth,3.57
2021-12-01T20:16:00,pth,4.80
2021-12-01T20:17:00,pth,2.40
2021-12-01T20:19:00,pth,3.57
2021-12-01T20:21:00,pth,4.80
2021-12-01T20:22:00,pth,2.40
2021-12-01T20:24:00,pth,4.80
2021-12-01T20:25:00,pth,2.40
2021-12-01T20:27:00,pth,4.80
2021-12-01T20:29:00,pth,4.80
2021-12-01T20:30:00,pth,2.40
2021-12-01T20:32:00,pth,4.80
2021-12-01T20:34:00,pth,4.80
2021-12-01T20:36:00,pth,4.80
2021-12-01T20:38:00,pth,4.80
2021-12-01T20:39:00,pth,1.17
2021-12-01T20:41:00,pth,4.80
2021-12-01T20:43:00,pth,6.04
2021-12-01T20:45:00,pth,4.75
2021-12-01T20:46:00,pth,2.40
2021-12-01T20:48:00,pth,7.21
2021-12-01T20:49:00,pth,2.40
2021-12-01T20:51:00,pth,6.04
2021-12-01T20:53:00,pth,4.80
2021-12-01T20:54:00,pth,3.57
2021-12-01T20:55:00,pth,2.40
2021-12-01T20:57:00,pth,3.57
2021-12-01T20:58:00,pth,3.63
2021-12-01T21:00:00,pth,15.59
2021-12-01T21:02:00,pth,15.59
2021-12-01T21:04:00,pth,15.64
2021-12-01T21:06:00,pth,15.59
2021-12-01T21:08:00,pth,16.82
2021-12-01T21:10:00,pth,15.59
2021-12-01T21:11:00,pth,8.38
2021-12-01T21:13:00,pth,16.82
2021-12-01T21:14:00,pth,7.21
2021-12-01T21:15:00,pth,8.38
2021-12-01T21:16:00,pth,8.38
2021-12-01T21:18:00,pth,16.82
2021-12-01T21:20:00,pth,16.82
2021-12-01T21:21:00,pth,8.38
2021-12-01T21:23:00,pth,16.82
2021-12-01T21:24:00,pth,8.38
2021-12-01T21:26:00,pth,16.82
2021-12-01T21:28:00,pth,15.59
2021-12-01T21:30:00,pth,16.82
2021-12-01T21:31:00,pth,8.38
2021-12-01T21:33:00,pth,16.82
2021-12-01T21:35:00,pth,16.82
2021-12-01T21:37:00,pth,15.59
2021-12-01T21:39:00,pth,16.82
2021-12-01T21:41:00,pth,16.76
2021-12-01T21:43:00,pth,16.82
2021-12-01T21:44:00,pth,7.21
2021-12-01T21:46:00,pth,15.59
2021-12-01T21:48:00,pth,15.64
2021-12-01T21:50:00,pth,16.76
2021-12-01T21:51:00,pth,7.21
2021-12-01T21:52:00,pth,8.44
2021-12-01T21:54:00,pth,14.36
2021-12-01T21:55:00,pth,2.40
2021-12-01T21:56:00,pth,2.40
2021-12-01T21:57:00,pth,7.21
2021-12-01T21:59:00,pth,4.80
2021-12-01T22:00:00,pth,2.40
2021-12-01T22:02:00,pth,10.78
2021-12-01T22:04:00,pth,15.64
2021-12-01T22:05:00,pth,8.38
2021-12-01T22:07:00,pth,16.82
2021-12-01T22:08:00,pth,7.15
2021-12-01T22:09:00,pth,8.44
2021-12-01T22:11:00,pth,15.59
2021-12-01T22:12:00,pth,8.38
2021-12-01T22:13:00,pth,7.21
2021-12-01T22:15:00,pth,16.82
2021-12-01T22:17:00,pth,16.82
2021-12-01T22:19:00,pth,15.59
2021-12-01T22:21:00,pth,16.82
2021-12-01T22:23:00,pth,15.59
2021-12-01T22:24:00,pth,8.38
2021-12-01T22:26:00,pth,15.64
2021-12-01T22:27:00,pth,8.38
2021-12-01T22:30:00,pth,24.02
2021-12-01T22:31:00,pth,8.38
2021-12-01T22:33:00,pth,15.59
2021-12-01T22:35:00,pth,16.82
2021-12-01T22:37:00,pth,16.82
2021-12-01T22:38:00,pth,7.15
2021-12-01T22:39:00,pth,8.44
2021-12-01T22:41:00,pth,15.59
2021-12-01T22:43:00,pth,15.59
2021-12-01T22:45:00,pth,16.82
2021-12-01T22:46:00,pth,7.21
2021-12-01T22:48:00,pth,15.59
2021-12-01T22:50:00,pth,16.82
2021-12-01T22:52:00,pth,15.59
2021-12-01T22:53:00,pth,7.21
2021-12-01T22:55:00,pth,16.82
2021-12-01T22:56:00,pth,7.21
2021-12-01T22:57:00,pth,3.57
2021-12-01T22:59:00,pth,9.61
2021-12-01T23:01:00,pth,10.78
2021-12-01T23:03:00,pth,4.80
2021-12-01T23:05:00,pth,4.80
2021-12-01T23:06:00,pth,2.40
2021-12-01T23:07:00,pth,2.40
2021-12-01T23:09:00,pth,4.80
2021-12-01T23:11:00,pth,4.80
2021-12-01T23:13:00,pth,4.80
2021-12-01T23:14:00,pth,2.40
2021-12-01T23:16:00,pth,4.80
2021-12-01T23:17:00,pth,2.40